Main page
METAR-TAF:

METAR-TAF

Airports :

Zabol Airport

Zabol, Iran

latitude: 31-20N, longitude: 061-29E, elevation: 489 m

Current weather observation

The report was made 35 minutes ago, at 00:00 UTC
Wind 18 kt from the North/Northwest
Temperature 25°C
Humidity 18%
Pressure 1008 hPa
Visibility 10 km or more
no clouds below 1500 m and no cumulonimbus

METAR: OIZB 240000Z 33018KT CAVOK 25/M01 Q1008

Time: 05:05 (00:35 UTC)


TAF: missing

Weather observations and forecasts of more than 4000 airports (METAR and TAF reports).

The available stations are represented by yellow and red dots on the map.

Hover mouse over dot to see the name of the station.

Then click to see weather observations and forecasts.

To change the map : click on the green buttons with a black cross to zoom in, on the green button with a dash to zoom out, or on the green arrows for adjacent maps.


METAR-TAF: